mlmleadsystempro.com alexa rank chart, mlmleadsystempro.com alexa rank daily changes

mlmleadsystempro.com alexa rank chart, mlmleadsystempro.com alexa rank daily changes

mlmleadsystempro.com
Actual rank:
73 356

RANK HISTORY

Date Rank Diff
2017/10/22 73 356 -2
2017/10/21 73 358 +550
2017/10/20 72 808 -463
2017/10/19 73 271 +634
2017/10/18 72 637 +1 112
2017/10/17 71 525 -782
2017/10/16 72 307 +474
2017/10/14 71 833 -1 069
2017/10/13 72 902 +93
2017/10/12 72 809 -878
2017/10/11 73 687 -789
2017/10/10 74 476 -976
2017/10/09 75 452 +155
2017/10/08 75 297 -431
2017/10/07 75 728 +132
2017/10/06 75 596 +565
2017/10/05 75 031 +701
2017/10/04 74 330 +1 709
2017/10/03 72 621 +2 099
2017/10/02 70 522 +440
2017/10/01 70 082 +1 453
2017/09/30 68 629 -347
2017/09/29 68 976 +190
2017/09/28 68 786 +645
2017/09/27 68 141 +1 052
2017/09/26 67 089 +594
2017/09/25 66 495 +558
2017/09/24 65 937 +500
2017/09/23 65 437 +860
2017/09/22 64 577 -167
2017/09/20 64 744 -129
2017/09/19 64 873 +405
2017/09/18 64 468 -395
2017/09/17 64 863 +122
2017/09/16 64 741 -393
2017/09/15 65 134 +464
2017/09/14 64 670 -545
2017/09/13 65 215 -439
2017/09/12 65 654 +793
2017/09/11 64 861 -537
2017/09/10 65 398 -189
2017/09/09 65 587 -240
2017/09/08 65 827 +435
2017/09/07 65 392 +525
2017/09/06 64 867 +4
2017/09/05 64 863 -1 012
2017/09/04 65 875 -790
2017/09/03 66 665 -671
2017/09/02 67 336 -270
2017/09/01 67 606 -847
2017/08/31 68 453 +385
2017/08/30 68 068 +1 558
2017/08/29 66 510 -72
2017/08/28 66 582 -620
2017/08/27 67 202 -180
2017/08/26 67 382 +35
2017/08/25 67 347 -389
2017/08/24 67 736 +303
2017/08/23 67 433

WIDGET FOR YOUR SITE

DOMAINS WITH THE NEAREST RANK

Domain Rank
icmag.com 73 351
jianfouart.com 73 352
ghost-of-usenet.org 73 353
soccerbase.com 73 354
tareasplus.com 73 355
mlmleadsystempro.com 73 356
wideworldpapers.com 73 357
meloman.kz 73 358
eduzones.com 73 359
miner8.com 73 360
iwc.com 73 361

DOMAINS WITH THE NEAREST RANK BY TLD .com

Domain Rank
dvderotik.com 73 350
icmag.com 73 351
jianfouart.com 73 352
soccerbase.com 73 354
tareasplus.com 73 355
mlmleadsystempro.com 73 356
wideworldpapers.com 73 357
eduzones.com 73 359
miner8.com 73 360
iwc.com 73 361
lawyersgunsmoneyblog.com 73 362